Home > Weather > Almaty > Past weeks

Flag for Kazakhstan Weather for the Past 2 Weeks in Almaty, Kazakhstan

Now
10 °F

Ice fog.


Feels Like: 4 °F
Forecast: 10 / 37 °F
Wind: 3 mph from South

Location: Almaty Airport

Current Time: Feb 14, 2016 at 10:07:51 AM

Latest Report: Feb 14, 2016 at 9:30 AM


Visibility: 0 mi

Pressure: 30.33 "Hg (27.35 "Hg at 790m altitude)

Humidity: 79%

Dew point: 5 °F

Location of AlmatyLocation

Historic Weather in Almaty — Graph

°F

Almaty Temperature Yesterday

Maximum temperature yesterday: 21 °F (at 3:00 PM)
Minimum temperature yesterday: 1 °F (at 1:00 AM)
Average temperature yesterday: 9 °F

High & Low Weather Summary for the Past Weeks

 TemperatureHumidityPressure
High50 °F (Feb 8, 3:30 PM)93% (Jan 30, 9:00 AM)30.69 "Hg (Jan 30, 9:00 AM)
Low-4 °F (Feb 12, 5:00 AM)32% (Feb 6, 4:30 PM)29.89 "Hg (Feb 8, 12:00 AM)
Average23 °F76%30.31 "Hg
* Reported Jan 30 9:00 AM — Feb 14 9:00 AM, Almaty, Weather by CustomWeather, © 2016

Note: Actual official high and low records may vary slightly from our data, if they occured in-between our weather recording intervals... More about our weather records

Advertising

Almaty Weather History for the Previous 24 Hours

 ConditionsComfort  
Time TempWeatherWind HumidityBarometerVisibility
9:00 AM
Sun, Feb 14
7 °FIce fog.3 mph78%30.33 "Hg1 mi
8:30 AM3 °FIce fog.1 mph78%30.33 "Hg1 mi
8:00 AM3 °FIce fog.3 mph85%30.30 "Hg1 mi
7:30 AM3 °FIce fog.1 mph78%30.30 "Hg1 mi
7:00 AM3 °FIce fog.1 mph78%30.30 "Hg1 mi
6:30 AM3 °FIce fog.1 mph78%30.30 "Hg1 mi
6:00 AM3 °FIce fog.3 mph78%30.30 "Hg1 mi
5:30 AM3 °FIce fog.3 mph78%30.30 "Hg1 mi
5:00 AM3 °FIce fog.1 mph78%30.30 "Hg1 mi
4:30 AM5 °FIce fog.1 mph78%30.30 "Hg1 mi
4:00 AM3 °FIce fog.No wind78%30.30 "Hg1 mi
3:30 AM3 °FIce fog.1 mph78%30.30 "Hg1 mi
3:00 AM3 °FIce fog.No wind85%30.30 "Hg1 mi
2:30 AM5 °FIce fog.1 mph78%30.30 "Hg1 mi
2:00 AM5 °FIce fog.1 mph78%30.30 "Hg1 mi
1:30 AM5 °FIce fog.1 mph78%30.30 "Hg0 mi
1:00 AM5 °FIce fog.No wind78%30.30 "Hg0 mi
12:30 AM5 °FIce fog.3 mph85%30.30 "Hg0 mi
12:00 AM5 °FIce fog.3 mph85%30.33 "Hg0 mi
11:30 PM
Sat, Feb 13
7 °FIce fog.1 mph78%30.33 "Hg0 mi
11:00 PM7 °FIce fog.1 mph78%30.33 "Hg1 mi
10:30 PM9 °FIce fog.1 mph78%30.33 "Hg0 mi
10:00 PM7 °FIce fog.1 mph78%30.33 "Hg1 mi
9:30 PM10 °FIce fog.1 mph72%30.33 "Hg1 mi
9:00 PM9 °FIce fog.No wind78%30.33 "Hg1 mi
8:30 PM9 °FIce fog.1 mph78%30.33 "Hg1 mi
8:00 PM10 °FPassing clouds.No wind72%30.33 "Hg3 mi
7:30 PM12 °FPassing clouds.No wind67%30.33 "HgN/A
7:00 PM12 °FPassing clouds.3 mph67%30.33 "HgN/A
6:30 PM12 °FPassing clouds.3 mph67%30.33 "HgN/A
6:00 PM14 °FClear.3 mph67%30.30 "HgN/A
5:30 PM16 °FClear.6 mph62%30.30 "HgN/A
5:00 PM18 °FClear.6 mph62%30.30 "Hg3 mi
4:30 PM19 °FClear.6 mph58%30.30 "Hg3 mi
4:00 PM19 °FClear.6 mph53%30.30 "Hg3 mi
3:30 PM21 °FClear.6 mph54%30.30 "Hg3 mi
3:00 PM21 °FClear.6 mph54%30.30 "Hg3 mi
2:30 PM19 °FClear.6 mph58%30.30 "Hg3 mi
2:00 PM19 °FClear.6 mph53%30.30 "Hg3 mi
1:30 PM18 °FClear.6 mph58%30.30 "Hg3 mi
1:00 PM18 °FClear.3 mph58%30.30 "Hg3 mi
12:30 PM16 °FClear.3 mph57%30.30 "Hg3 mi
12:00 PM16 °FClear.3 mph57%30.30 "Hg3 mi
11:30 AM14 °FClear.3 mph57%30.30 "Hg3 mi
11:00 AM14 °FClear.3 mph57%30.30 "Hg3 mi
10:30 AM12 °FClear.3 mph62%30.30 "Hg2 mi
10:00 AM10 °FIce fog.No wind61%30.33 "Hg1 mi
Weather by CustomWeather, © 2016

See weather overviewHow to use our weather pages